| time (UTC) | temp F | wind direction | speed MPH | gust MPH | rain 1hr in | rain 24hr in | rain mn in | humidity % | barometer mb |
| 20260504175706 | 62 | 339 | 4.0 | 20.0 | 0.00 | 0.00 | 0.00 | 31 | 999.0 |
| 20260504175206 | 62 | 5 | 7.0 | 20.0 | 0.00 | 0.00 | 0.00 | 31 | 998.9 |
| 20260504173703 | 62 | 346 | 2.0 | 20.0 | 0.00 | 0.00 | 0.00 | 32 | 998.8 |
| 20260504173204 | 62 | 355 | 6.0 | 21.0 | 0.00 | 0.00 | 0.00 | 31 | 998.7 |
| 20260504172703 | 62 | 334 | 2.0 | 21.0 | 0.00 | 0.00 | 0.00 | 32 | 998.8 |
| 20260504172203 | 62 | 351 | 6.0 | 23.0 | 0.00 | 0.00 | 0.00 | 32 | 998.8 |
| 20260504171704 | 62 | 351 | 2.0 | 23.0 | 0.00 | 0.00 | 0.00 | 36 | 998.7 |
| 20260504171203 | 62 | 20 | 3.0 | 20.0 | 0.00 | 0.00 | 0.00 | 34 | 998.7 |
| 20260504170703 | 62 | 15 | 3.0 | 18.0 | 0.00 | 0.00 | 0.00 | 37 | 998.5 |
| 20260504170203 | 61 | 303 | 2.0 | 17.0 | 0.00 | 0.00 | 0.00 | 39 | 998.5 |
| 20260504160203 | 60 | 344 | 5.0 | 13.0 | 0.00 | 0.00 | 0.00 | 37 | 998.2 |
| 20260504150703 | 59 | 315 | 3.0 | 17.0 | 0.00 | 0.00 | 0.00 | 39 | 997.9 |
| 20260504150203 | 59 | 5 | 6.0 | 17.0 | 0.00 | 0.00 | 0.00 | 37 | 997.9 |
| 20260504141203 | 58 | 12 | 8.0 | 23.0 | 0.00 | 0.00 | 0.00 | 36 | 997.8 |
| 20260504140204 | 58 | 11 | 7.0 | 21.0 | 0.00 | 0.00 | 0.00 | 37 | 997.7 |
| 20260504130703 | 58 | 16 | 3.0 | 17.0 | 0.00 | 0.00 | 0.00 | 44 | 996.9 |
| 20260504130203 | 58 | 355 | 5.0 | 12.0 | 0.00 | 0.00 | 0.00 | 45 | 996.8 |
| 20260504120203 | 57 | 319 | 3.0 | 14.0 | 0.00 | 0.00 | 0.00 | 43 | 996.1 |
| 20260504110704 | 54 | 324 | 5.0 | 13.0 | 0.00 | 0.00 | 0.00 | 45 | 995.4 |
| 20260504110203 | 54 | 271 | 2.0 | 9.0 | 0.00 | 0.00 | 0.00 | 46 | 995.4 |
| 20260504081702 | 53 | 263 | 2.0 | 8.0 | 0.00 | 0.00 | 0.00 | 44 | 997.5 |
| 20260504081202 | 53 | 307 | 1.0 | 7.0 | 0.00 | 0.00 | 0.00 | 44 | 997.6 |
| 20260504080702 | 54 | 323 | 1.0 | 7.0 | 0.00 | 0.00 | 0.00 | 43 | 997.6 |
| 20260504080202 | 54 | 225 | 2.0 | 8.0 | 0.00 | 0.00 | 0.00 | 43 | 997.8 |
| 20260504070203 | 55 | 233 | 1.0 | 7.0 | 0.00 | 0.00 | 0.00 | 40 | 998.7 |
| 20260504060202 | 56 | 293 | 2.0 | 6.0 | 0.00 | 0.00 | 0.00 | 37 | 1000.0 |
| 20260504050703 | 56 | 204 | 1.0 | 6.0 | 0.00 | 0.00 | 0.00 | 38 | 1001.0 |
| 20260504050203 | 56 | 210 | 1.0 | 5.0 | 0.00 | 0.00 | 0.00 | 39 | 1001.1 |
| 20260504045703 | 57 | 208 | 1.0 | 5.0 | 0.00 | 0.00 | 0.00 | 39 | 1001.2 |
| 20260504045203 | 57 | 204 | 1.0 | 3.0 | 0.00 | 0.00 | 0.00 | 38 | 1001.3 |
| 20260504044703 | 57 | 203 | 1.0 | 3.0 | 0.00 | 0.00 | 0.00 | 38 | 1001.4 |
| 20260504044203 | 57 | 211 | 0.0 | 3.0 | 0.00 | 0.00 | 0.00 | 38 | 1001.4 |
| 20260504043203 | 57 | 201 | 0.0 | 3.0 | 0.00 | 0.00 | 0.00 | 37 | 1001.7 |
| 20260504042703 | 57 | 235 | 1.0 | 3.0 | 0.00 | 0.00 | 0.00 | 36 | 1001.7 |
| 20260504042204 | 57 | 280 | 0.0 | 3.0 | 0.00 | 0.00 | 0.00 | 37 | 1001.8 |
| 20260504041202 | 57 | 204 | 0.0 | 2.0 | 0.00 | 0.00 | 0.00 | 36 | 1001.9 |
| 20260504040703 | 57 | 307 | 0.0 | 2.0 | 0.00 | 0.00 | 0.00 | 36 | 1002.0 |
| 20260504040203 | 57 | 317 | 0.0 | 0.0 | 0.00 | 0.00 | 0.00 | 36 | 1002.2 |
| 20260504035702 | 57 | 317 | 0.0 | 1.0 | 0.00 | 0.00 | 0.00 | 35 | 1002.3 |
| 20260504034703 | 57 | 317 | 0.0 | 3.0 | 0.00 | 0.00 | 0.00 | 35 | 1002.5 |
| 20260504034202 | 57 | 317 | 0.0 | 3.0 | 0.00 | 0.00 | 0.00 | 35 | 1002.6 |
| 20260504033703 | 57 | 317 | 0.0 | 3.0 | 0.00 | 0.00 | 0.00 | 35 | 1002.7 |
| 20260504033203 | 58 | 317 | 0.0 | 0.0 | 0.00 | 0.00 | 0.00 | 35 | 1002.8 |
| 20260504032702 | 58 | 317 | 0.0 | 0.0 | 0.00 | 0.00 | 0.00 | 34 | 1002.9 |
| 20260504032202 | 58 | 317 | 0.0 | 1.0 | 0.00 | 0.00 | 0.00 | 35 | 1003.0 |
| 20260504031703 | 58 | 317 | 0.0 | 1.0 | 0.00 | 0.00 | 0.00 | 34 | 1003.0 |
| 20260504031202 | 58 | 317 | 0.0 | 3.0 | 0.00 | 0.00 | 0.00 | 35 | 1003.0 |
| 20260504030703 | 58 | 317 | 0.0 | 3.0 | 0.00 | 0.00 | 0.00 | 35 | 1003.1 |
| 20260504030204 | 58 | 317 | 0.0 | 1.0 | 0.00 | 0.00 | 0.00 | 34 | 1003.0 |
| 20260504025703 | 58 | 317 | 0.0 | 0.0 | 0.00 | 0.00 | 0.00 | 33 | 1003.1 |
| 20260504025202 | 58 | 317 | 0.0 | 0.0 | 0.00 | 0.00 | 0.00 | 34 | 1003.1 |
| 20260504024203 | 58 | 317 | 0.0 | 0.0 | 0.00 | 0.00 | 0.00 | 33 | 1003.1 |
| 20260504022203 | 59 | 317 | 0.0 | 0.0 | 0.00 | 0.00 | 0.00 | 33 | 1003.3 |
| 20260504021703 | 60 | 317 | 0.0 | 0.0 | 0.00 | 0.00 | 0.00 | 32 | 1003.3 |
| 20260504021203 | 60 | 317 | 0.0 | 0.0 | 0.00 | 0.00 | 0.00 | 30 | 1003.4 |
| 20260504020703 | 60 | 317 | 0.0 | 0.0 | 0.00 | 0.00 | 0.00 | 30 | 1003.4 |
| 20260504020203 | 61 | 317 | 0.0 | 0.0 | 0.00 | 0.00 | 0.00 | 29 | 1003.4 |
| 20260504015203 | 61 | 317 | 0.0 | 2.0 | 0.00 | 0.00 | 0.00 | 28 | 1003.5 |
| 20260504014703 | 61 | 317 | 0.0 | 2.0 | 0.00 | 0.00 | 0.00 | 28 | 1003.4 |
| 20260504013703 | 62 | 317 | 0.0 | 3.0 | 0.00 | 0.00 | 0.00 | 28 | 1003.5 |
| 20260504013204 | 63 | 317 | 0.0 | 6.0 | 0.00 | 0.00 | 0.00 | 28 | 1003.6 |
| 20260504012703 | 63 | 358 | 1.0 | 6.0 | 0.00 | 0.00 | 0.00 | 28 | 1003.6 |
| 20260504012203 | 63 | 283 | 0.0 | 7.0 | 0.00 | 0.00 | 0.00 | 27 | 1003.6 |
| 20260504011703 | 64 | 301 | 1.0 | 7.0 | 0.00 | 0.00 | 0.00 | 27 | 1003.7 |
| 20260504011203 | 64 | 307 | 1.0 | 7.0 | 0.00 | 0.00 | 0.00 | 26 | 1003.6 |
| 20260504010703 | 64 | 273 | 1.0 | 5.0 | 0.00 | 0.00 | 0.00 | 27 | 1003.6 |
| 20260504010203 | 65 | 0 | 1.0 | 5.0 | 0.00 | 0.00 | 0.00 | 27 | 1003.6 |
| 20260504005703 | 65 | 0 | 0.0 | 5.0 | 0.00 | 0.00 | 0.00 | 26 | 1003.7 |
| 20260504005203 | 65 | 334 | 0.0 | 3.0 | 0.00 | 0.00 | 0.00 | 26 | 1003.7 |
| 20260504004703 | 65 | 241 | 0.0 | 2.0 | 0.00 | 0.00 | 0.00 | 25 | 1003.7 |
| 20260504004203 | 65 | 240 | 0.0 | 3.0 | 0.00 | 0.00 | 0.00 | 25 | 1003.7 |
| 20260504003703 | 66 | 246 | 0.0 | 3.0 | 0.00 | 0.00 | 0.00 | 24 | 1003.7 |
| 20260504003203 | 66 | 0 | 0.0 | 3.0 | 0.00 | 0.00 | 0.00 | 24 | 1003.8 |
| 20260504002703 | 66 | 0 | 0.0 | 3.0 | 0.00 | 0.00 | 0.00 | 23 | 1003.8 |
| 20260504001703 | 66 | 239 | 0.0 | 7.0 | 0.00 | 0.00 | 0.00 | 24 | 1003.8 |
| 20260504001203 | 66 | 290 | 1.0 | 7.0 | 0.00 | 0.00 | 0.00 | 23 | 1003.8 |
| 20260504000703 | 67 | 355 | 1.0 | 7.0 | 0.00 | 0.00 | 0.00 | 22 | 1003.9 |
| 20260504000204 | 67 | 229 | 1.0 | 7.0 | 0.00 | 0.00 | 0.00 | 23 | 1003.8 |
| 20260503235704 | 67 | 341 | 0.0 | 3.0 | 0.00 | 0.00 | 0.00 | 23 | 1003.9 |
| 20260503235204 | 67 | 260 | 0.0 | 5.0 | 0.00 | 0.00 | 0.00 | 23 | 1003.9 |
| 20260503234202 | 68 | 20 | 1.0 | 6.0 | 0.00 | 0.00 | 0.00 | 22 | 1003.9 |
| 20260503233702 | 68 | 303 | 0.0 | 6.0 | 0.00 | 0.00 | 0.00 | 22 | 1003.8 |
| 20260503233203 | 68 | 334 | 2.0 | 10.0 | 0.00 | 0.00 | 0.00 | 24 | 1003.8 |
| 20260503232203 | 68 | 11 | 0.0 | 10.0 | 0.00 | 0.00 | 0.00 | 21 | 1003.9 |
| 20260503231704 | 68 | 6 | 3.0 | 10.0 | 0.00 | 0.00 | 0.00 | 19 | 1003.9 |
| 20260503231203 | 68 | 18 | 2.0 | 8.0 | 0.00 | 0.00 | 0.00 | 20 | 1004.1 |
| 20260503230703 | 68 | 227 | 1.0 | 9.0 | 0.00 | 0.00 | 0.00 | 21 | 1004.2 |
| 20260503230203 | 68 | 12 | 1.0 | 9.0 | 0.00 | 0.00 | 0.00 | 21 | 1004.2 |
| 20260503225702 | 68 | 25 | 1.0 | 9.0 | 0.00 | 0.00 | 0.00 | 21 | 1004.2 |
| 20260503224702 | 68 | 355 | 2.0 | 12.0 | 0.00 | 0.00 | 0.00 | 19 | 1004.3 |
| 20260503224203 | 68 | 357 | 2.0 | 12.0 | 0.00 | 0.00 | 0.00 | 20 | 1004.4 |
| 20260503223703 | 69 | 348 | 1.0 | 12.0 | 0.00 | 0.00 | 0.00 | 19 | 1004.4 |
| 20260503223203 | 69 | 354 | 2.0 | 12.0 | 0.00 | 0.00 | 0.00 | 20 | 1004.4 |
| 20260503222703 | 69 | 357 | 2.0 | 12.0 | 0.00 | 0.00 | 0.00 | 20 | 1004.4 |
| 20260503222203 | 69 | 324 | 3.0 | 12.0 | 0.00 | 0.00 | 0.00 | 21 | 1004.4 |
| 20260503221703 | 69 | 318 | 2.0 | 12.0 | 0.00 | 0.00 | 0.00 | 20 | 1004.4 |
| 20260503221203 | 69 | 1 | 1.0 | 12.0 | 0.00 | 0.00 | 0.00 | 21 | 1004.4 |
| 20260503220703 | 69 | 19 | 0.0 | 6.0 | 0.00 | 0.00 | 0.00 | 21 | 1004.4 |
| 20260503220203 | 69 | 3 | 1.0 | 8.0 | 0.00 | 0.00 | 0.00 | 19 | 1004.5 |
| 20260503215703 | 69 | 12 | 2.0 | 12.0 | 0.00 | 0.00 | 0.00 | 18 | 1004.6 |
| 20260503215203 | 70 | 22 | 4.0 | 12.0 | 0.00 | 0.00 | 0.00 | 18 | 1004.6 |
| 20260503214203 | 70 | 14 | 3.0 | 10.0 | 0.00 | 0.00 | 0.00 | 17 | 1004.7 |
| 20260503213703 | 70 | 147 | 1.0 | 12.0 | 0.00 | 0.00 | 0.00 | 20 | 1004.7 |
| 20260503213203 | 70 | 353 | 3.0 | 12.0 | 0.00 | 0.00 | 0.00 | 18 | 1004.8 |
| 20260503212703 | 70 | 7 | 3.0 | 12.0 | 0.00 | 0.00 | 0.00 | 18 | 1004.7 |
| 20260503212203 | 70 | 37 | 5.0 | 15.0 | 0.00 | 0.00 | 0.00 | 17 | 1004.7 |
| 20260503211203 | 71 | 18 | 3.0 | 14.0 | 0.00 | 0.00 | 0.00 | 19 | 1004.9 |
| 20260503210703 | 71 | 340 | 1.0 | 13.0 | 0.00 | 0.00 | 0.00 | 20 | 1004.8 |
| 20260503210203 | 70 | 336 | 2.0 | 13.0 | 0.00 | 0.00 | 0.00 | 21 | 1004.9 |
| 20260503205203 | 70 | 315 | 4.0 | 12.0 | 0.00 | 0.00 | 0.00 | 21 | 1005.1 |
| 20260503204704 | 70 | 12 | 4.0 | 13.0 | 0.00 | 0.00 | 0.00 | 20 | 1005.1 |
| 20260503203203 | 70 | 14 | 1.0 | 20.0 | 0.00 | 0.00 | 0.00 | 22 | 1005.3 |
| 20260503202703 | 70 | 317 | 1.0 | 12.0 | 0.00 | 0.00 | 0.00 | 22 | 1005.2 |
| 20260503202203 | 70 | 2 | 1.0 | 12.0 | 0.00 | 0.00 | 0.00 | 22 | 1005.2 |
| 20260503201703 | 70 | 22 | 2.0 | 12.0 | 0.00 | 0.00 | 0.00 | 23 | 1005.3 |
| 20260503201203 | 71 | 4 | 5.0 | 12.0 | 0.00 | 0.00 | 0.00 | 23 | 1005.3 |
| 20260503200703 | 71 | 349 | 3.0 | 10.0 | 0.00 | 0.00 | 0.00 | 24 | 1005.5 |
| 20260503200203 | 70 | 0 | 0.0 | 13.0 | 0.00 | 0.00 | 0.00 | 24 | 1005.4 |
| 20260503195203 | 70 | 26 | 3.0 | 13.0 | 0.00 | 0.00 | 0.00 | 24 | 1005.5 |
| 20260503194703 | 70 | 343 | 1.0 | 12.0 | 0.00 | 0.00 | 0.00 | 26 | 1005.6 |
| 20260503194203 | 70 | 23 | 2.0 | 14.0 | 0.00 | 0.00 | 0.00 | 26 | 1005.6 |
| 20260503193703 | 70 | 26 | 2.0 | 14.0 | 0.00 | 0.00 | 0.00 | 24 | 1005.7 |
| 20260503192703 | 69 | 136 | 1.0 | 13.0 | 0.00 | 0.00 | 0.00 | 25 | 1005.8 |
| 20260503191704 | 69 | 20 | 5.0 | 13.0 | 0.00 | 0.00 | 0.00 | 23 | 1005.9 |
| 20260503190703 | 68 | 21 | 3.0 | 16.0 | 0.00 | 0.00 | 0.00 | 23 | 1005.9 |
| 20260503190203 | 68 | 17 | 5.0 | 16.0 | 0.00 | 0.00 | 0.00 | 23 | 1005.8 |
| 20260503185703 | 68 | 24 | 2.0 | 12.0 | 0.00 | 0.00 | 0.00 | 24 | 1005.8 |
| 20260503184703 | 68 | 64 | 4.0 | 16.0 | 0.00 | 0.00 | 0.00 | 21 | 1006.0 |
| 20260503184202 | 68 | 6 | 6.0 | 16.0 | 0.00 | 0.00 | 0.00 | 23 | 1005.9 |
| 20260503183703 | 67 | 49 | 1.0 | 13.0 | 0.00 | 0.00 | 0.00 | 24 | 1006.0 |
| 20260503183203 | 67 | 44 | 3.0 | 13.0 | 0.00 | 0.00 | 0.00 | 25 | 1006.1 |
| 20260503182704 | 67 | 11 | 3.0 | 13.0 | 0.00 | 0.00 | 0.00 | 25 | 1006.1 |
| 20260503182203 | 67 | 42 | 2.0 | 14.0 | 0.00 | 0.00 | 0.00 | 25 | 1006.1 |
| 20260503181703 | 67 | 27 | 2.0 | 16.0 | 0.00 | 0.00 | 0.00 | 27 | 1006.2 |
| 20260503180703 | 67 | 5 | 5.0 | 14.0 | 0.00 | 0.00 | 0.00 | 27 | 1006.2 |
| 20260503180203 | 67 | 359 | 2.0 | 14.0 | 0.00 | 0.00 | 0.00 | 32 | 1006.3 |